Probability
26 23 19 19 16 10 13 13 19 16 13 10 16 16 13 10 6 10 10 3 0 0 0 0 0 0 0 0 0 0 0 0 0 3 3 3 6 10
26 26 26 19 19 19 26 13 10 23 19 13 16 13 13 10 10 16 10 0 0 0 0 0 0 0 0 0 0 0 0 0 0 0 0 3 0 0
29 26 29 29 26 26 26 19 16 13 19 16 13 13 13 13 13 10 6 6 6 0 0 0 0 0 0 0 0 0 0 0 0 0 0 0 0 0
45 39 35 32 29 29 23 23 19 19 19 23 16 16 13 13 6 10 10 6 10 6 3 0 0 0 0 0 0 0 0 0 0 0 0 0 0 0
39 39 35 35 35 29 23 23 19 16 16 16 19 16 16 13 6 6 6 10 10 10 0 0 0 0 0 0 0 0 0 0 0 0 0 0 0 0
35 32 32 29 29 29 26 23 23 16 13 16 16 13 13 16 13 6 10 10 6 3 3 3 0 0 0 0 0 0 0 0 0 0 0 0 0 0
35 35 32 32 29 29 29 23 19 13 13 13 16 10 10 10 10 13 6 3 3 0 3 3 3 3 0 0 0 0 0 0 0 0 0 0 0 0
29 32 32 32 29 16 10 13 13 13 13 13 13 13 13 10 13 10 6 6 6 3 3 3 3 3 0 0 0 0 0 0 0 0 0 0 0 0
23 26 26 29 29 32 19 10 3 3 10 13 13 13 13 6 13 10 6 3 10 3 3 3 3 3 3 0 0 0 0 0 0 0 0 0 0 0
23 23 26 26 26 29 29 16 16 6 6 3 13 13 6 6 10 10 6 6 0 0 3 6 3 3 0 0 0 0 0 0 0 0 0 0 0 0
16 16 23 23 16 6 23 23 13 10 3 0 3 3 3 0 0 3 3 0 0 3 3 3 3 6 3 3 0 0 0 0 0 0 0 0 0 0
16 13 6 6 10 0 10 16 16 13 10 3 0 3 0 0 0 0 0 0 0 3 0 3 3 3 0 3 3 3 0 0 0 0 0 0 0 0
16 13 13 0 0 0 0 10 13 10 6 3 3 3 0 0 0 0 0 0 0 3 3 3 3 3 3 0 3 3 3 3 0 0 0 0 0 0
13 13 10 3 0 0 0 0 0 3 6 3 3 3 0 0 0 0 0 0 0 0 3 0 3 0 0 0 0 3 3 3 3 3 3 0 0 0
6 3 0 0 0 0 0 0 0 3 3 3 3 3 3 0 0 0 0 0 0 0 0 0 0 0 0 0 0 3 0 0 3 0 6 3 0 0
0 0 0 0 0 0 0 0 0 0 3 3 3 3 3 0 0 0 0 0 0 0 0 0 0 0 0 0 0 0 0 3 0 0 0 0 0 0
0 0 0 0 3 3 3 0 0 0 3 3 3 3 3 0 0 0 0 0 0 0 0 0 0 0 0 0 0 0 0 0 0 0 0 0 0 0
0 0 0 3 3 3 3 3 3 3 3 3 3 3 3 0 0 0 0 0 0 0 0 0 0 0 0 0 0 0 0 0 0 0 0 0 0 0
0 0 0 0 3 6 6 3 3 3 3 3 3 3 3 0 0 0 0 0 0 0 0 0 0 0 0 0 0 0 0 0 0 0 0 0 0 0
0 0 0 3 3 6 6 3 3 3 3 6 3 3 0 0 0 0 0 0 0 0 0 0 0 0 0 0 0 0 0 0 0 0 0 0 0 0
0 0 0 0 3 3 6 3 3 3 3 3 0 0 0 0 0 0 0 0 0 0 0 0 0 0 0 0 0 0 0 0 0 0 0 0 0 0
0 0 0 0 0 0 3 3 3 3 3 3 0 0 0 0 0 0 0 0 0 0 0 0 0 0 0 0 0 0 0 0 0 0 0 0 0 0
0 0 0 0 0 0 0 0 0 3 3 3 0 0 0 0 0 0 0 0 0 0 0 0 0 0 0 0 0 0 0 0 0 0 0 0 0 0
Height
5880 5879 5878 5877 5876 5875 5874 5873 5873 5872 5871 5870 5869 5868 5867 5866 5865 5865 5864 5863 5863 5862 5861 5860 5860 5859 5859 5858 5857 5856 5855 5853 5852 5851 5849 5848 5846 5844
5876 5874 5873 5872 5871 5870 5869 5868 5867 5867 5866 5865 5864 5863 5862 5861 5860 5859 5858 5858 5857 5856 5855 5854 5854 5853 5853 5852 5851 5850 5849 5848 5846 5845 5843 5842 5840 5838
5870 5869 5868 5867 5866 5865 5863 5862 5861 5861 5860 5859 5858 5857 5856 5855 5855 5854 5853 5852 5851 5850 5849 5848 5848 5847 5846 5846 5845 5844 5843 5841 5840 5838 5836 5835 5833 5831
5864 5863 5862 5861 5859 5858 5857 5856 5855 5854 5853 5853 5852 5851 5850 5849 5848 5847 5846 5845 5844 5844 5843 5842 5841 5840 5839 5839 5838 5837 5836 5834 5833 5831 5830 5828 5826 5824
5858 5856 5855 5854 5852 5851 5850 5848 5847 5847 5846 5845 5844 5844 5843 5842 5841 5840 5839 5839 5838 5837 5835 5834 5834 5833 5832 5831 5830 5829 5828 5827 5825 5824 5822 5820 5818 5816
5851 5849 5848 5847 5845 5844 5843 5842 5840 5839 5838 5838 5837 5836 5836 5835 5834 5833 5833 5832 5831 5830 5828 5827 5826 5825 5824 5824 5823 5822 5820 5819 5818 5816 5814 5812 5810 5808
5843 5842 5840 5839 5838 5836 5835 5834 5833 5832 5831 5830 5830 5829 5828 5827 5827 5826 5825 5824 5823 5822 5821 5820 5819 5817 5816 5815 5814 5813 5812 5811 5809 5808 5806 5804 5802 5800
5835 5834 5832 5831 5830 5829 5827 5826 5825 5824 5823 5822 5822 5821 5820 5819 5819 5818 5817 5816 5815 5814 5813 5812 5810 5809 5808 5807 5806 5805 5803 5802 5801 5799 5797 5796 5794 5792
5826 5825 5823 5822 5821 5820 5818 5817 5816 5816 5815 5815 5814 5813 5812 5811 5810 5809 5808 5808 5807 5806 5804 5803 5802 5801 5799 5798 5797 5796 5794 5793 5791 5790 5788 5787 5785 5783
5817 5815 5814 5813 5812 5811 5810 5809 5808 5807 5806 5805 5805 5804 5803 5802 5801 5800 5799 5798 5798 5796 5795 5795 5793 5792 5791 5789 5788 5786 5785 5784 5782 5780 5779 5778 5776 5774
5807 5805 5804 5803 5802 5801 5801 5800 5799 5798 5797 5796 5795 5794 5793 5792 5791 5791 5790 5789 5788 5787 5786 5785 5784 5783 5781 5780 5778 5777 5775 5774 5773 5771 5770 5768 5767 5765
5796 5795 5794 5793 5792 5791 5790 5790 5789 5789 5787 5786 5786 5785 5784 5783 5781 5780 5780 5779 5778 5777 5776 5775 5774 5773 5772 5771 5769 5767 5766 5764 5763 5761 5760 5758 5757 5755
5784 5784 5783 5782 5781 5780 5780 5779 5779 5778 5777 5777 5776 5775 5774 5773 5772 5770 5769 5768 5768 5767 5766 5765 5764 5763 5762 5761 5760 5758 5756 5755 5753 5752 5750 5749 5748 5746
5773 5772 5771 5770 5769 5769 5769 5768 5768 5767 5767 5766 5766 5765 5764 5763 5762 5761 5760 5758 5757 5756 5755 5754 5753 5753 5752 5751 5750 5748 5747 5745 5744 5743 5741 5740 5739 5737
5760 5759 5759 5758 5757 5757 5757 5757 5756 5756 5756 5755 5755 5754 5754 5753 5752 5751 5749 5748 5747 5745 5744 5743 5743 5742 5741 5741 5740 5739 5737 5736 5734 5733 5732 5731 5729 5728
5747 5746 5745 5745 5745 5745 5745 5744 5744 5745 5744 5744 5744 5743 5743 5742 5741 5740 5739 5738 5737 5736 5734 5733 5732 5732 5731 5730 5730 5729 5727 5726 5725 5724 5723 5722 5720 5719
5733 5733 5733 5733 5733 5733 5733 5733 5733 5733 5733 5732 5732 5732 5731 5731 5731 5730 5729 5728 5727 5725 5724 5723 5722 5721 5721 5720 5719 5719 5718 5717 5716 5715 5714 5713 5711 5710
5720 5720 5720 5720 5721 5721 5721 5721 5721 5721 5721 5721 5721 5721 5721 5720 5720 5719 5719 5718 5716 5715 5715 5714 5713 5712 5711 5710 5710 5709 5708 5707 5706 5706 5705 5704 5703 5701
5707 5707 5708 5708 5708 5708 5709 5709 5710 5710 5710 5710 5710 5710 5710 5710 5710 5709 5708 5707 5706 5706 5705 5704 5703 5702 5701 5701 5700 5699 5699 5698 5697 5697 5696 5695 5694 5693
5695 5695 5694 5695 5695 5696 5697 5697 5698 5698 5698 5699 5699 5699 5699 5699 5699 5698 5698 5697 5697 5696 5695 5694 5693 5693 5692 5692 5691 5690 5689 5688 5688 5688 5687 5686 5685 5684
5682 5681 5681 5682 5683 5684 5684 5685 5686 5686 5687 5687 5688 5688 5688 5688 5688 5688 5687 5687 5687 5686 5686 5685 5684 5683 5682 5682 5681 5681 5680 5679 5678 5678 5677 5677 5676 5676
5669 5668 5669 5670 5670 5671 5672 5673 5674 5675 5676 5676 5677 5677 5677 5677 5677 5677 5677 5677 5677 5677 5676 5675 5674 5674 5673 5672 5672 5671 5671 5670 5669 5668 5668 5667 5667 5667
5657 5656 5657 5658 5659 5660 5661 5661 5662 5663 5664 5665 5666 5666 5666 5666 5666 5667 5667 5666 5667 5667 5666 5665 5665 5664 5664 5663 5662 5661 5661 5660 5660 5660 5659 5658 5658 5658
Wind_Speed
17 18 18 18 18 19 20 19 19 19 19 19 19 19 20 20 20 20 20 21 21 21 22 22 22 22 22 22 22 23 22 23 23 23 23 24 24 24
20 20 20 20 20 20 20 20 20 21 20 21 21 21 21 21 21 21 22 22 23 23 24 24 24 24 24 24 24 24 24 24 24 25 26 25 26 26
22 23 23 22 22 22 22 22 22 22 22 23 23 23 23 23 23 23 23 23 23 24 24 24 25 25 25 25 26 25 26 26 27 27 27 27 27 27
25 25 25 25 24 24 24 24 24 24 24 25 26 26 25 25 25 25 25 25 25 25 25 25 25 25 25 26 26 26 27 28 28 28 28 28 28 28
27 28 27 28 27 26 26 26 26 26 26 26 26 26 26 26 26 26 26 26 27 27 26 26 26 27 27 27 27 27 28 28 28 28 28 29 29 30
29 29 28 29 28 28 28 27 27 27 27 27 27 27 27 26 27 27 27 28 28 29 28 28 28 28 28 29 29 29 29 29 29 29 29 29 29 30
30 30 30 30 30 29 29 28 28 28 28 28 28 29 29 29 28 28 28 29 29 29 30 30 30 30 30 30 31 31 31 31 31 30 30 30 29 29
31 31 32 32 32 31 31 31 30 30 30 30 29 30 30 30 30 30 30 30 30 30 30 30 30 31 31 31 31 32 32 31 31 32 31 31 30 30
32 33 33 33 33 33 32 32 32 32 32 31 31 31 31 32 32 32 32 32 32 32 31 31 32 32 32 32 32 32 32 32 32 32 32 32 31 31
35 35 35 34 34 34 34 33 32 33 33 33 32 32 32 33 33 33 33 33 33 34 33 33 33 33 33 33 32 32 32 32 33 33 33 32 32 32
37 35 34 34 33 34 34 33 34 35 35 34 33 32 32 33 34 34 34 34 34 34 34 34 34 33 33 33 33 32 32 33 33 33 32 32 32 32
39 37 36 36 36 35 34 34 34 35 35 34 33 33 33 34 35 35 35 35 35 35 35 35 34 33 32 33 33 32 32 32 32 32 32 32 32 32
40 39 38 38 37 36 35 35 35 35 35 35 35 35 35 35 35 35 35 35 35 35 35 35 34 33 33 32 32 32 33 33 32 32 31 31 32 32
40 40 40 39 38 38 37 37 37 36 36 36 36 36 36 35 35 35 35 35 35 35 35 35 34 33 33 32 32 31 32 31 31 31 31 31 32 32
41 41 41 40 40 39 39 38 38 38 37 37 37 36 36 36 35 35 34 34 35 35 35 34 34 33 32 31 31 31 31 31 31 31 31 31 31 31
41 40 40 40 40 40 40 39 39 39 38 38 37 37 36 35 34 34 34 34 34 33 33 33 33 33 32 32 31 31 31 31 31 31 31 31 31 30
41 40 40 39 39 39 39 39 39 39 38 38 38 37 36 35 34 34 34 34 34 33 32 32 32 32 32 32 31 31 31 30 31 31 31 30 29 28
40 40 40 40 40 39 39 38 38 37 37 37 37 37 36 34 34 33 34 34 33 33 33 32 31 31 31 31 31 31 31 30 31 31 30 29 28 27
40 40 40 39 39 39 38 36 36 37 36 36 35 35 35 34 34 34 34 33 33 32 31 31 30 30 30 30 30 30 30 30 30 30 30 29 27 26
40 38 38 38 38 37 37 36 36 36 36 35 35 34 34 33 33 33 33 33 32 31 31 30 29 29 29 29 29 29 30 30 29 29 28 28 26 25
38 37 37 36 36 36 36 36 36 36 35 35 34 34 33 33 32 32 32 32 32 31 30 30 29 29 30 30 29 29 29 30 29 28 27 26 26 25
36 36 36 35 35 35 35 35 35 36 36 35 35 34 33 32 32 31 31 31 31 31 31 30 29 29 30 30 30 29 29 29 29 28 27 26 26 25
33 33 33 33 34 33 34 35 35 35 35 35 34 33 33 32 32 32 32 32 32 31 31 30 29 30 30 29 29 29 28 28 28 28 27 27 26 25
Wind_Direction
286 288 289 288 288 285 285 285 285 287 288 286 283 283 280 278 280 280 280 279 280 280 281 281 281 281 282 283 283 283 285 286 288 289 289 290 290 292
283 284 285 289 288 289 288 287 286 285 284 282 281 280 279 279 279 279 280 280 282 282 281 281 280 280 281 280 283 283 283 285 288 289 289 289 290 290
281 283 284 286 285 286 286 286 286 284 282 282 280 279 278 278 280 280 280 280 280 282 282 280 279 279 279 280 281 282 282 283 286 288 288 289 290 290
282 284 286 285 286 285 283 282 283 282 281 280 280 280 278 278 279 279 280 281 280 281 281 282 279 279 279 281 282 282 283 283 284 285 286 289 290 290
281 282 282 283 282 281 281 281 281 280 280 279 279 279 278 278 279 279 279 280 281 281 281 282 281 279 279 281 282 282 282 284 285 286 287 288 289 290
281 281 282 281 281 280 280 281 281 279 278 279 279 279 278 279 280 279 279 280 280 281 281 281 281 279 279 280 282 282 282 285 286 286 287 289 288 288
280 280 282 282 280 280 280 280 279 278 278 278 278 278 279 279 280 280 281 281 281 281 280 279 280 279 280 280 282 281 282 283 285 286 287 288 288 288
279 279 281 281 280 280 280 278 277 278 279 278 277 277 278 279 280 280 280 279 280 280 280 280 281 281 281 282 282 281 281 283 284 284 285 286 287 287
280 281 282 281 279 278 279 279 278 278 278 278 278 277 277 278 279 279 279 279 278 278 278 279 280 281 282 282 281 281 281 283 283 283 284 286 287 288
280 281 279 279 279 277 278 278 278 277 277 277 276 276 277 277 279 279 279 279 278 277 276 277 278 279 280 282 282 281 282 283 283 284 284 285 286 288
279 280 279 278 279 277 276 277 277 276 277 277 275 275 276 278 279 278 279 279 279 277 277 277 277 279 280 282 281 281 282 283 283 283 285 286 286 287
277 277 278 277 277 277 275 275 275 276 276 276 275 276 277 280 280 279 279 280 279 278 278 277 278 279 279 280 280 280 281 282 283 284 285 286 286 286
275 275 275 275 276 275 275 274 275 275 275 275 276 277 278 279 280 279 280 280 280 279 278 277 278 278 279 279 279 280 281 282 282 283 283 285 285 286
275 274 274 274 274 274 274 274 274 274 274 274 275 276 276 277 278 279 280 281 281 280 279 278 278 278 279 279 279 279 280 281 282 281 281 283 285 286
274 273 272 272 272 273 273 273 273 272 272 273 274 275 276 276 278 278 278 279 280 279 279 278 278 278 279 279 278 278 279 279 280 280 281 283 284 285
274 273 272 271 271 271 271 271 271 271 271 272 273 275 276 276 277 278 279 280 280 279 278 277 277 278 278 277 276 276 277 278 280 281 281 283 285 285
275 272 271 271 271 270 270 270 270 270 270 272 273 273 274 275 275 276 278 279 279 278 278 278 277 277 277 277 275 276 277 277 278 280 282 283 284 284
275 273 271 271 269 269 269 269 268 268 269 271 271 271 272 274 275 275 276 278 279 279 277 277 277 277 278 277 276 276 277 278 278 278 280 282 283 283
274 271 269 268 268 268 267 267 267 266 267 268 270 271 271 272 274 274 275 277 278 279 277 277 277 277 276 277 278 277 277 277 277 278 279 281 282 282
273 271 270 267 266 266 266 266 266 265 265 266 269 270 270 270 272 273 274 276 277 276 277 277 277 277 277 277 277 277 277 277 277 278 278 278 280 280
272 271 270 268 266 265 265 265 265 265 264 266 267 268 269 269 271 272 272 274 275 275 277 277 277 278 277 278 278 277 276 276 277 278 278 278 278 279
273 271 270 268 267 265 264 264 264 265 264 264 265 267 268 269 270 270 270 271 272 274 275 275 276 278 278 279 278 278 276 275 276 278 279 278 278 278
275 271 269 268 267 266 266 265 265 264 264 264 264 266 267 268 267 267 268 269 271 272 273 274 275 276 278 278 278 277 276 275 276 278 278 277 277 277